Home   Weather   Clarksville   Past weeks

Flag for USA Past Weather in Clarksville, Tennessee, USA — Yesterday and Last 2 Weeks

62 °F

Light rain. Mostly cloudy.

Feels Like: 62 °F
Forecast: 52 / 70 °F
Wind: 6 mph from Southwest

Location: Outlaw Field

Current Time: Oct 27, 2016 at 6:01:29 AM

Latest Report: Oct 27, 2016 at 4:52 AM

Visibility: 10 mi

Pressure: 30.14 "Hg

Humidity: 78%

Dew Point: 55 °F

Location of ClarksvilleLocation

Past Weather in Clarksville — Graph


Clarksville Temperature Yesterday

Maximum temperature yesterday: 82 °F (at 2:52 PM)
Minimum temperature yesterday: 45 °F (at 4:52 AM)
Average temperature yesterday: 65 °F

High & Low Weather Summary for the Past Weeks

High87 °F (Oct 18, 1:52 PM)97% (Oct 15, 12:52 AM)30.32 "Hg (Oct 15, 12:52 AM)
Low39 °F (Oct 22, 6:52 AM)25% (Oct 25, 3:52 PM)29.83 "Hg (Oct 17, 4:52 PM)
Average64 °F67%30.11 "Hg
* Reported Oct 12 4:52 AM — Oct 27 4:52 AM, Clarksville, Weather by CustomWeather, © 2016

Note: Actual official high and low records may vary slightly from our data, if they occured in-between our weather recording intervals... More about our weather records


Clarksville Weather History for the Previous 24 Hours

Scroll right to see more
Time TempWeatherWind HumidityBarometerVisibility
4:52 AM
Thu, Oct 27
62 °FLight rain. Mostly cloudy.6 mph78%30.14 "Hg10 mi
3:52 AM65 °FMostly cloudy.7 mph59%30.14 "Hg10 mi
2:52 AM66 °FClear.3 mph54%30.14 "Hg10 mi
1:52 AM67 °FOvercast.3 mph53%30.14 "Hg10 mi
12:52 AM68 °FClear.10 mph49%30.12 "Hg10 mi
11:52 PM
Wed, Oct 26
66 °FPassing clouds.8 mph52%30.14 "Hg10 mi
10:52 PM67 °FPassing clouds.8 mph51%30.14 "Hg10 mi
9:52 PM70 °FClear.6 mph44%30.14 "Hg10 mi
8:52 PM71 °FClear.6 mph41%30.12 "Hg10 mi
7:52 PM70 °FClear.6 mph44%30.11 "Hg10 mi
6:52 PM71 °FClear.6 mph41%30.11 "Hg10 mi
5:52 PM75 °FClear.7 mph34%30.10 "Hg10 mi
4:52 PM79 °FSunny.13 mph27%30.09 "Hg10 mi
3:52 PM80 °FSunny.13 mph27%30.10 "Hg10 mi
2:52 PM82 °FSunny.15 mph25%30.10 "Hg10 mi
1:52 PM81 °FSunny.16 mph29%30.12 "Hg10 mi
12:52 PM80 °FSunny.13 mph32%30.15 "Hg10 mi
11:52 AM77 °FSunny.6 mph37%30.18 "Hg10 mi
10:52 AM73 °FSunny.13 mph41%30.21 "Hg10 mi
9:52 AM65 °FSunny.3 mph52%30.22 "Hg10 mi
8:52 AM57 °FSunny.5 mph67%30.22 "Hg10 mi
7:52 AM50 °FSunny.5 mph83%30.20 "Hg10 mi
6:52 AM47 °FSunny.5 mph83%30.19 "Hg10 mi
Weather by CustomWeather, © 2016

See weather overviewHow to use our weather pages